User: anonymous   Login
Location: Unspecified
(0.0000°N, 0.0000°E)
Time: 11:15:55
(UTC+00:00)
Language:

MERIDIAN 1 - Orbit

View from above orbital plane
View from above orbital plane
View from above satellite
View from above satellite

Ground track
Ground track

The orbit data is extracted from the following two-line orbital elements,

1 29668U 06061A   18173.68922104 -.00000411 +00000-0 -18598-2 0  9997
2 29668 064.3601 044.4846 7354883 235.4749 032.8648 02.00626203084223
Epoch (UTC): 22 June 2018 16:32:28
Eccentricity: 0.7354883
inclination: 64.3601°
perigee height: 646 km
apogee height: 39707 km
right ascension of ascending node: 44.4846°
argument of perigee: 235.4749°
revolutions per day: 2.00626203
mean anomaly at epoch: 32.8648°
orbit number at epoch: 8422

The dashed part of the orbit path shows where the satellite is in the earth's shadow,  

DLR